CAPE
0 0 0 0 0 0 0 0 0 0 0 0 0 0 490 125 4 0 0 27 1380 921 946 1299 1282 1230 1177 1037 579 278 142 16 0 0 0 0 19 49 18 40 135 395 472 380 218 60 0 0 0
0 0 0 0 0 0 0 0 0 0 0 0 0 0 908 601 87 0 13 1047 1066 955 769 1004 1244 1179 1107 916 514 223 108 9 0 0 0 0 3 156 93 126 337 565 509 440 210 72 6 0 0
0 0 0 0 0 0 0 0 0 0 0 0 0 0 978 467 63 16 505 1414 1226 888 819 969 1184 1058 977 811 526 212 155 0 0 0 0 0 1 167 316 184 131 381 588 396 171 82 1 0 0
0 0 0 0 0 0 0 0 0 0 0 0 0 0 306 714 387 1085 1333 1414 884 997 1086 1162 1132 977 913 808 623 335 272 57 5 9 0 0 0 219 493 366 333 127 34 44 70 7 0 0 0
0 0 0 0 0 0 0 0 0 0 0 0 0 1 611 2029 1492 1343 1337 1572 802 1417 1418 1038 1094 1011 882 855 697 455 239 32 16 21 0 0 0 185 471 376 336 229 95 10 0 0 0 0 0
0 0 0 0 0 0 0 0 0 0 0 0 0 11 494 2043 1361 1658 1631 1611 1136 1404 1566 978 1114 988 941 867 745 495 222 38 32 30 23 1 0 6 116 293 301 167 98 32 3 0 0 0 0
0 0 0 0 0 0 0 0 0 0 0 0 0 0 723 1967 1535 1836 1760 1603 1652 1619 1391 913 1026 1179 1037 985 798 511 223 113 105 92 71 5 0 0 41 139 128 77 162 127 10 0 0 0 0
0 0 0 0 0 0 0 0 0 0 0 0 0 0 318 1804 1468 1437 1654 1471 1597 1446 1166 663 822 1081 1141 1205 866 524 359 196 158 178 139 7 0 0 23 0 0 0 44 107 28 0 0 0 0
0 0 0 0 0 0 0 0 0 0 0 0 0 14 562 1652 1288 1495 1386 1580 1617 1369 1060 543 631 807 996 1127 996 721 599 432 373 339 184 0 0 0 0 0 0 0 0 24 16 0 0 0 0
0 0 0 0 0 0 0 0 0 0 0 0 0 548 997 1659 1359 1500 1461 1482 1605 1339 896 391 440 573 754 929 1026 770 811 658 494 356 186 0 0 0 0 0 0 0 0 0 0 4 0 0 0
0 0 0 0 0 0 0 0 0 0 0 0 0 11 524 848 1560 1452 1629 1291 1544 1228 683 223 221 348 446 625 531 565 574 412 327 216 34 0 0 41 0 20 10 0 0 0 0 0 0 0 0
0 0 0 0 0 0 0 0 0 0 0 0 0 0 140 249 236 1416 1500 1573 1380 1179 772 214 61 11 95 249 170 194 171 133 45 41 3 0 0 40 4 25 9 0 0 0 0 0 0 0 0
0 0 0 0 0 0 0 0 0 0 0 0 0 0 0 47 88 132 672 1535 1449 1270 669 285 38 12 151 147 27 43 42 57 2 77 95 0 0 34 47 11 41 20 47 8 0 0 0 0 0
0 0 0 0 0 0 0 0 0 0 0 0 0 0 0 0 0 0 22 50 1753 1166 449 233 201 248 520 278 114 171 189 109 91 50 168 39 0 35 119 76 309 384 171 94 71 70 162 184 51
0 0 0 0 0 0 0 0 0 0 0 0 0 0 0 0 0 0 0 12 1282 1007 495 372 261 268 906 718 268 481 444 342 453 331 334 235 58 252 901 370 398 166 277 313 262 174 115 42 1
0 0 0 0 0 0 0 0 0 0 0 0 0 0 0 0 0 0 0 0 943 759 513 235 9 12 126 1410 678 535 909 654 825 781 596 522 326 851 1470 1059 1023 827 838 578 255 254 192 216 241
0 0 0 0 0 0 0 0 0 0 0 0 0 0 0 0 0 0 0 0 291 211 6 0 0 0 174 1139 1480 742 1730 1014 1179 1596 1228 1025 926 976 1270 1093 1015 1127 1136 593 420 425 494 507 514
0 0 0 0 0 0 0 0 0 0 0 0 0 0 0 0 0 0 0 0 128 108 12 1 0 0 31 1275 2116 1595 2001 1707 1797 1670 1747 1775 1710 1411 1271 1113 1168 1147 984 876 878 553 552 451 329
0 0 0 0 0 0 0 0 0 0 0 0 0 0 0 0 0 0 0 0 253 316 0 0 0 0 2 364 1489 1644 1699 2084 2011 1992 2125 2159 1885 1619 1345 1194 1111 1082 961 1098 759 548 450 305 185
2 0 0 0 0 0 0 0 0 0 0 0 0 0 0 0 0 0 0 0 1321 2154 1386 248 337 492 1050 1711 1685 1782 1912 2141 1929 2168 2056 1993 1900 1841 1723 1395 1270 1313 1336 1209 950 527 317 198 118
11 5 0 0 0 0 0 0 0 0 0 0 0 0 0 0 0 0 0 0 1231 2779 2392 2106 2365 1845 2091 2008 2056 2176 1979 2144 1890 1679 1874 2084 1878 1643 1486 1541 1416 1159 1092 1022 763 438 200 20 64
0 0 0 0 0 0 0 0 0 0 0 0 0 0 0 0 0 0 0 0 1939 2119 1741 1667 2263 2188 2232 2292 2051 2195 2035 1927 1782 1741 1788 1851 1679 1508 1381 1279 1219 995 828 710 533 400 323 100 0
0 0 0 0 0 0 0 0 0 0 0 0 0 0 0 0 0 0 0 3 1768 2137 1697 1135 1270 1611 1964 2123 2067 2044 2096 1897 1806 1979 1820 1804 1491 1178 1172 1097 946 823 803 932 670 166 84 304 410
12 0 0 0 0 0 0 0 0 1 0 0 0 0 0 0 0 0 0 628 2192 1669 670 0 303 1840 1873 2002 2192 1826 2172 1703 1576 1874 1770 1446 1121 942 970 997 850 862 701 703 757 880 801 693 629
36 10 0 0 0 0 0 0 0 0 0 0 0 0 0 0 0 0 0 720 2253 1766 1072 902 1239 1984 1995 2012 1907 2178 1659 1335 1749 1867 1448 1250 988 919 876 834 792 759 658 462 603 513 354 494 317
21 5 0 0 0 0 0 0 0 0 0 0 0 0 0 0 0 0 0 458 2141 2340 2331 2237 2360 2087 1951 1746 1988 1536 1124 1307 1498 1380 1288 1045 814 670 384 165 72 23 2 19 23 57 35 36 53
35 19 5 9 7 0 0 0 0 0 1 1 0 0 0 0 0 0 0 106 2143 2209 2099 2199 2289 1878 1533 1500 1334 1175 977 829 693 538 416 386 286 131 0 0 0 0 0 0 0 0 0 0 0
0 0 0 0 1 6 0 0 0 0 48 24 0 0 0 0 0 0 39 1237 2005 1886 1949 1959 1601 1183 971 736 490 352 199 44 0 0 0 0 0 0 0 0 0 0 0 0 0 0 0 0 0
15 0 0 0 25 1 0 0 0 0 114 155 177 0 0 27 572 1062 1587 1633 1579 1474 1443 1315 896 597 344 83 0 0 0 0 0 0 0 0 0 0 0 0 0 0 0 0 0 0 0 0 0
5 53 7 5 1 12 1 0 120 483 359 398 693 625 914 1075 1201 1113 1132 1064 1006 984 649 358 26 0 0 0 0 0 0 0 0 0 0 0 0 0 0 0 0 0 0 0 0 0 0 0 0
CIN
0 0 0 0 0 0 0 0 0 0 0 0 0 0 -81 -169 -196 0 0 -250 -349 -464 -497 -407 -382 -362 -335 -329 -416 -501 -552 -533 0 0 0 0 -611 -520 -565 -483 -332 -168 -114 -134 -197 -321 0 0 0
0 0 0 0 0 0 0 0 0 0 0 0 0 -9 -76 -105 -195 0 -421 -364 -463 -518 -506 -484 -396 -376 -375 -373 -445 -531 -581 -551 0 0 0 0 -288 -404 -424 -370 -215 -102 -106 -122 -205 -304 -358 0 0
0 0 0 0 0 0 0 0 0 0 0 0 0 0 -89 -125 -274 -277 -439 -452 -497 -563 -509 -487 -417 -408 -415 -420 -455 -528 -553 0 0 0 0 0 -87 -399 -281 -339 -358 -187 -83 -144 -248 -301 -104 0 0
0 0 0 0 0 0 0 0 0 0 0 0 0 0 -100 -147 -288 -202 -307 -367 -462 -490 -497 -478 -431 -443 -433 -419 -448 -494 -501 -616 -374 -613 0 0 0 -363 -213 -228 -235 -333 -396 -372 -323 -415 0 0 0
0 0 0 0 0 0 0 0 0 0 0 0 0 -4 -63 -34 -117 -240 -353 -363 -426 -443 -454 -499 -458 -460 -451 -418 -431 -462 -514 -667 -669 -634 -12 0 0 -379 -220 -229 -235 -268 -337 -311 0 0 0 0 0
0 0 0 0 0 0 0 0 0 0 0 0 0 -14 -68 -82 -112 -219 -308 -345 -400 -436 -417 -500 -453 -477 -446 -433 -432 -451 -526 -639 -617 -605 -623 -269 0 -421 -409 -263 -240 -291 -324 -368 -213 0 0 0 0
0 0 0 0 0 0 0 0 0 0 0 0 0 0 -80 -80 -98 -178 -232 -319 -407 -403 -429 -506 -463 -423 -424 -410 -424 -459 -519 -549 -534 -530 -538 -505 0 0 -479 -354 -329 -346 -289 -287 -137 0 0 0 0
0 0 0 0 0 0 0 0 0 0 0 0 0 0 -86 -99 -93 -99 -183 -299 -403 -391 -434 -536 -499 -425 -389 -357 -394 -443 -468 -507 -489 -464 -468 -466 0 0 -461 0 0 0 -366 -308 -329 0 0 0 0
0 0 0 0 0 0 0 0 0 0 0 0 0 -10 -62 -70 -70 -70 -106 -214 -310 -354 -417 -531 -534 -482 -404 -335 -339 -377 -384 -398 -394 -385 -415 0 0 0 0 0 0 0 0 -238 -278 0 0 0 0
0 0 0 0 0 0 0 0 0 0 0 0 0 -44 -55 -50 -52 -51 -88 -173 -248 -317 -386 -517 -527 -489 -420 -348 -312 -346 -307 -325 -346 -366 -412 0 0 0 0 0 0 0 0 0 0 -389 0 0 0
0 0 0 0 0 0 0 0 0 0 0 0 0 -2 -41 -31 -33 -16 -31 -97 -196 -326 -405 -542 -539 -485 -439 -418 -464 -447 -427 -449 -433 -443 -525 0 0 -408 0 -379 -374 0 0 0 0 0 0 0 0
0 0 0 0 0 0 0 0 0 0 0 0 0 0 -63 -29 -26 -18 -11 -26 -78 -218 -353 -454 -516 -250 -517 -503 -570 -548 -562 -544 -559 -551 -98 0 0 -287 -440 -361 -370 0 0 0 0 0 0 0 0
0 0 0 0 0 0 0 0 0 0 0 0 0 0 0 -25 -23 -20 -16 -11 -56 -105 -261 -469 -414 -347 -500 -502 -649 -647 -682 -603 -146 -472 -435 0 0 -400 -355 -419 -313 -286 -217 -223 0 0 0 0 0
0 0 0 0 0 0 0 0 0 0 0 0 0 0 0 0 0 0 -20 -34 -66 -170 -229 -333 -318 -250 -195 -315 -460 -456 -447 -454 -438 -441 -375 -401 0 -368 -244 -217 -125 -86 -117 -149 -147 -119 -79 -102 -142
0 0 0 0 0 0 0 0 0 0 0 0 0 0 0 0 0 0 -1 -140 -162 -268 -210 -178 -347 -353 -99 -43 -236 -246 -255 -324 -306 -301 -298 -279 -313 -202 -74 -86 -54 -60 -34 -34 -50 -36 -26 -28 -5
0 0 0 0 0 0 0 0 0 0 0 0 0 0 0 0 0 0 0 0 -278 -375 -251 -289 -88 -513 -225 -87 -120 -185 -162 -199 -186 -230 -217 -188 -198 -86 -19 -23 -17 -14 -17 -20 -23 -21 -32 -47 -56
0 0 0 0 0 0 0 0 0 0 0 0 0 0 0 0 0 0 0 0 -319 -392 -374 -1 0 0 -229 -93 -46 -77 -24 -124 -97 -82 -136 -148 -116 -66 -27 -20 -15 -30 -24 -22 -34 -40 -44 -63 -44
0 0 0 0 0 0 0 0 0 0 0 0 0 0 0 0 0 0 0 0 -313 -378 -362 -379 0 0 -84 -19 -9 -16 -15 -24 -27 -31 -49 -69 -70 -46 -32 -27 -19 -27 -32 -26 -31 -42 -42 -52 -51
0 0 0 0 0 0 0 0 0 0 0 0 0 0 0 0 0 0 0 0 -143 -249 0 0 0 0 -343 -14 -7 -7 -10 -18 -31 -36 -39 -37 -42 -33 -31 -32 -33 -35 -31 -27 -46 -50 -43 -55 -80
-3 0 0 0 0 0 0 0 0 0 0 0 0 0 0 0 0 0 0 0 -67 -154 -158 -308 -255 -226 -49 -8 -32 -17 -14 -22 -29 -30 -32 -28 -31 -31 -29 -40 -35 -32 -30 -34 -32 -44 -47 -85 -101
-2 -4 0 0 0 0 0 0 0 0 0 0 0 0 0 0 0 0 0 0 -73 -68 -44 -39 -47 -24 -44 -27 -17 -25 -23 -24 -26 -28 -23 -16 -19 -23 -33 -31 -39 -50 -41 -25 -29 -52 -79 -129 -113
0 0 0 0 0 0 0 0 0 0 0 0 0 0 0 0 0 0 0 0 -85 -76 -61 -81 -63 -74 -64 -38 -46 -50 -31 -50 -28 -32 -24 -13 -24 -29 -29 -32 -36 -52 -47 -47 -60 -76 -74 -94 0
0 0 0 0 0 0 0 -11 0 0 0 0 0 0 0 0 0 0 0 -13 -123 -89 -84 -124 -79 -22 -81 -71 -67 -54 -28 -24 -23 -16 -13 -19 -36 -46 -45 -51 -46 -48 -40 -24 -45 -116 -133 -67 -50
-4 0 0 0 0 0 0 0 0 -10 0 0 0 0 0 0 0 0 0 -67 -83 -86 -139 0 -254 -66 -63 -51 -24 -18 -17 -13 -12 -15 -23 -58 -78 -75 -57 -43 -54 -55 -52 -48 -39 -21 -25 -46 -55
-10 -17 0 0 0 0 0 0 0 0 0 0 0 0 0 0 0 0 0 -53 -89 -104 -167 -202 -117 -56 -47 -53 -30 -15 -7 -18 -15 -21 -29 -64 -89 -75 -73 -78 -68 -55 -64 -98 -80 -77 -90 -67 -84
-35 -33 0 0 0 0 0 0 0 0 0 0 0 0 0 0 0 0 0 -62 -106 -97 -85 -108 -87 -76 -34 -37 -8 -6 -17 -32 -28 -21 -36 -75 -109 -122 -189 -215 -223 -239 -42 -226 -229 -172 -180 -192 -159
-74 -27 -25 -2 -24 0 0 0 0 0 -3 -1 0 0 0 0 0 0 0 -147 -122 -90 -111 -116 -51 -37 -35 -16 -28 -16 -43 -90 -122 -159 -208 -201 -206 -242 -1 0 0 0 0 0 0 0 0 0 0
0 0 0 0 -8 -12 0 0 0 0 -26 -93 0 0 0 0 0 0 -53 -156 -102 -105 -103 -70 -60 -70 -89 -102 -141 -189 -264 -206 0 0 0 0 0 0 0 0 0 0 0 0 0 0 0 0 0
-9 -3 0 0 -10 -24 0 0 0 0 -70 -96 -198 0 0 -156 -174 -214 -122 -75 -128 -114 -122 -123 -78 -110 -191 -336 0 0 0 0 0 0 0 0 0 0 0 0 0 0 0 0 0 0 0 0 0
-70 -25 -40 -30 0 -19 -28 0 -250 -141 -123 -137 -239 -265 -249 -249 -174 -154 -141 -135 -134 -108 -152 -247 -491 -26 0 0 0 0 0 0 0 0 0 0 0 0 0 0 0 0 0 0 0 0 0 0 0
Wind_Speed
30 28 23 23 28 29 39 36 36 36 32 22 12 14 11 7 6 12 25 11 17 22 24 23 22 22 21 20 20 19 18 18 17 17 17 16 16 17 17 18 18 19 19 18 17 17 17 17 17
25 25 22 26 34 39 41 41 40 38 33 20 17 16 10 13 8 7 12 14 18 21 21 21 22 22 22 21 20 19 19 19 18 17 17 17 17 17 17 17 18 18 18 17 16 16 16 16 16
23 22 26 30 39 45 44 37 41 39 30 23 22 18 15 11 10 3 4 22 19 20 18 17 19 21 23 22 21 20 19 19 18 18 17 17 17 17 17 17 17 17 16 16 15 14 14 14 14
21 22 29 41 44 47 52 41 43 41 36 25 19 17 13 3 8 7 21 18 14 14 15 16 16 16 18 20 20 19 17 17 17 16 16 16 16 17 16 15 15 15 15 14 14 13 12 12 12
23 27 40 46 52 51 46 47 48 44 39 32 21 21 13 6 8 12 12 12 12 9 12 13 14 14 16 18 19 19 18 17 16 15 15 15 15 15 14 14 14 14 13 13 12 12 11 10 11
25 28 41 50 49 50 52 50 46 44 42 38 23 12 15 3 4 7 8 6 8 10 9 10 11 11 14 16 18 18 18 18 17 16 15 15 14 14 14 13 12 12 12 12 12 11 10 9 9
27 34 43 45 46 50 48 44 51 47 45 41 28 17 10 5 4 7 6 6 6 9 8 8 7 8 11 13 14 14 15 15 14 14 14 15 15 14 13 12 12 11 10 10 10 10 9 8 7
22 32 44 46 49 53 43 40 44 45 48 41 34 22 15 8 6 6 6 6 8 9 9 9 8 7 8 9 11 11 10 11 12 11 11 12 12 12 11 11 10 9 9 9 9 9 8 7 7
22 35 45 46 44 43 41 42 42 39 45 41 32 22 4 9 8 7 6 5 6 8 9 11 10 9 7 6 7 8 7 8 9 9 10 10 8 9 8 8 8 8 8 8 8 9 8 8 8
29 36 33 36 40 44 42 42 41 38 37 46 28 8 6 9 9 10 10 8 7 10 9 11 10 9 7 5 4 3 3 4 6 7 8 8 7 7 7 7 6 7 8 9 10 11 10 10 11
35 42 32 37 43 44 46 47 40 40 41 34 26 15 11 10 8 10 10 10 10 11 10 12 11 9 7 5 4 3 2 3 5 7 7 7 6 7 6 7 7 8 9 10 11 11 11 11 11
44 47 42 44 37 39 46 42 41 37 35 28 26 25 14 14 13 11 11 10 11 11 11 11 12 11 8 6 5 3 1 2 3 5 8 6 6 6 7 7 6 8 11 11 11 11 12 12 12
46 45 42 48 47 49 45 49 44 42 35 28 27 28 29 18 18 17 15 13 13 14 14 15 13 13 10 7 6 5 4 2 2 3 4 4 5 7 5 7 7 7 9 10 9 11 12 13 14
35 43 46 47 45 50 48 47 40 45 35 29 26 27 29 33 22 20 21 19 12 12 12 12 10 5 13 13 5 4 4 2 2 2 3 4 4 5 5 9 9 9 9 11 13 15 16 16 16
50 52 44 47 49 50 42 49 53 40 34 30 28 26 24 28 28 23 19 16 9 10 8 7 14 7 15 22 16 8 4 3 3 4 4 4 4 4 5 8 12 12 12 15 14 17 22 26 25
43 46 56 55 42 47 38 61 47 37 33 31 30 29 24 24 19 19 16 16 9 8 10 10 9 16 9 30 8 9 7 4 4 3 3 3 2 5 9 9 12 13 16 14 16 20 23 25 25
46 54 55 50 43 37 42 61 43 35 36 34 33 30 28 29 23 18 18 19 10 10 11 14 15 15 24 16 16 12 6 7 5 4 2 2 1 3 8 10 12 18 20 18 18 20 20 22 23
52 52 51 54 44 44 47 52 41 33 40 38 35 33 29 31 29 25 27 26 9 11 13 12 15 15 15 18 15 11 6 6 5 6 4 3 4 6 9 12 15 18 20 22 21 22 22 24 26
52 51 51 49 36 44 52 45 40 35 41 39 32 30 26 27 33 29 30 29 12 14 14 12 10 4 14 49 20 10 9 5 7 7 6 6 6 9 12 14 17 19 21 23 24 23 25 26 25
53 54 52 43 47 38 48 48 41 34 35 41 38 27 23 21 21 31 25 28 12 14 14 12 12 14 17 13 10 11 9 8 5 5 7 8 9 11 13 16 18 20 22 24 26 24 25 25 23
54 54 52 47 39 43 39 48 44 39 36 34 35 25 21 20 21 27 15 16 13 12 12 11 11 8 8 11 11 12 10 10 11 9 10 10 10 11 13 15 17 21 24 25 25 23 22 24 21
52 48 50 49 45 50 40 49 43 42 39 34 35 31 25 19 19 21 16 12 13 11 9 8 9 6 6 8 8 9 8 12 14 12 9 8 10 13 14 17 21 23 23 24 23 22 21 21 23
51 45 47 49 48 45 47 46 44 39 38 39 34 34 27 23 19 18 21 13 12 12 9 8 3 6 5 8 10 6 8 8 8 6 4 5 11 15 17 18 20 22 23 22 22 21 21 22 25
37 43 46 45 50 52 49 40 48 36 40 36 33 37 30 24 21 17 20 14 13 12 10 7 7 8 5 8 9 6 6 6 2 2 4 9 13 16 17 20 20 21 22 21 21 21 22 23 24
35 39 46 46 55 50 45 39 36 33 33 31 33 30 26 23 23 18 16 15 13 13 10 7 7 8 4 5 7 8 9 8 2 1 5 9 13 15 18 19 20 21 22 23 22 23 25 25 25
37 41 39 44 46 53 41 38 37 33 32 29 27 26 23 22 19 16 16 15 12 12 11 7 5 4 3 5 6 7 6 6 5 5 8 10 13 15 18 19 22 23 23 24 24 25 27 29 29
33 43 38 32 29 46 40 37 35 35 22 27 38 27 23 20 17 15 14 15 13 12 8 6 6 4 1 3 4 3 4 6 7 9 11 13 14 16 19 21 22 23 24 24 25 27 29 30 32
34 31 39 36 38 42 43 48 37 32 18 19 22 23 22 20 15 16 16 14 12 10 7 4 3 3 2 2 3 3 5 7 9 11 13 15 17 20 21 22 23 24 25 27 28 29 31 33 33
26 42 38 34 30 34 40 48 40 29 17 11 12 17 18 17 13 13 13 12 11 9 7 5 4 5 3 3 3 4 6 9 11 12 14 16 18 20 22 23 25 27 28 29 31 32 33 34 35
29 35 37 38 39 30 27 35 31 24 15 9 7 14 15 15 13 12 13 12 11 9 5 6 5 4 3 5 5 5 7 10 11 12 15 17 18 21 23 25 26 28 29 30 32 34 35 37 39
Wind_Direction
273 274 282 280 267 262 248 246 241 250 259 287 310 304 330 72 327 307 191 122 108 116 117 112 104 103 101 98 96 92 88 87 82 77 73 72 71 72 72 72 73 75 76 75 67 61 55 54 48
280 273 274 270 258 253 249 239 242 238 259 292 295 302 343 317 345 13 129 127 122 120 117 112 109 106 104 101 99 97 94 93 88 83 79 78 79 78 76 72 71 75 75 74 72 67 60 54 50
280 271 263 259 255 248 245 249 238 239 279 293 290 289 307 302 355 82 4 117 118 120 118 111 110 108 108 108 105 103 101 99 97 90 87 87 87 87 83 78 75 74 73 73 74 69 59 56 55
276 266 264 253 252 249 238 251 242 252 272 287 295 290 318 77 126 108 114 116 113 121 119 115 112 106 105 107 107 105 98 96 95 88 85 86 88 91 85 79 73 72 73 73 71 67 60 58 61
267 263 252 253 251 249 251 248 239 252 263 280 291 281 296 322 115 120 125 118 114 126 121 119 117 109 108 111 109 110 106 102 98 92 87 88 89 90 82 81 78 72 69 68 68 63 56 59 64
262 259 253 251 253 253 251 247 252 257 258 265 287 294 291 86 135 133 129 131 125 138 133 131 126 117 114 114 113 111 108 108 104 98 93 92 93 96 91 83 73 67 66 61 65 66 63 61 60
258 257 255 256 256 252 254 254 248 254 258 261 282 276 274 239 163 154 136 139 139 147 148 150 141 126 120 117 115 112 108 105 101 97 97 98 100 99 94 85 75 64 56 53 52 52 48 45 37
264 264 258 255 253 252 258 258 253 253 253 260 274 281 251 215 185 164 154 154 152 155 156 158 152 144 131 125 123 116 108 103 101 95 93 94 93 91 86 79 70 59 53 46 39 36 37 34 23
261 261 257 254 253 257 258 259 257 259 254 259 269 283 217 164 158 168 166 165 178 173 166 166 158 152 145 137 129 120 107 97 94 93 94 92 78 76 70 64 58 45 33 22 12 7 13 5 353
250 255 251 260 259 257 259 260 259 264 265 251 266 260 178 166 179 197 204 192 182 184 180 179 173 166 160 158 149 135 96 79 81 81 90 87 73 61 55 47 37 27 12 357 347 345 347 343 338
255 253 262 262 258 258 258 259 264 264 260 261 249 255 229 220 213 214 222 206 198 194 192 185 186 184 183 196 179 164 122 98 93 93 92 86 63 60 51 29 18 6 356 341 338 339 334 331 329
257 257 258 257 261 258 254 261 264 266 268 264 250 246 245 235 242 232 229 232 219 208 205 193 197 199 206 205 205 203 171 89 84 92 102 93 60 50 42 20 20 5 353 349 339 340 339 332 331
254 257 260 256 255 252 259 257 262 262 267 268 256 248 249 248 246 251 252 253 226 222 218 200 190 200 224 200 199 181 164 153 119 87 93 91 72 25 58 23 19 3 352 358 358 347 342 336 328
263 258 258 256 255 252 254 256 263 254 263 265 268 251 251 252 248 252 255 264 258 232 229 217 203 234 248 251 222 204 178 174 159 134 110 103 81 34 34 2 356 355 352 348 340 339 340 337 330
257 257 259 253 251 251 255 254 246 254 261 261 265 259 257 260 251 249 251 265 245 220 212 217 197 192 252 255 259 263 210 180 165 139 126 96 76 21 13 6 358 352 350 344 348 335 329 325 324
256 254 250 247 249 249 250 243 247 256 259 259 258 263 255 258 253 245 252 265 243 212 192 167 170 144 202 236 216 228 214 215 226 181 159 142 65 8 0 355 350 349 340 343 341 335 329 327 326
252 247 247 249 248 248 243 244 250 253 257 257 256 259 258 254 258 255 261 262 237 216 192 180 200 215 192 215 239 219 223 195 229 285 222 202 344 355 357 354 344 341 345 343 337 337 336 331 330
244 245 247 247 246 247 246 249 251 252 253 255 255 256 256 254 256 260 261 262 235 226 218 214 192 203 242 238 217 199 244 254 288 293 304 321 331 339 346 343 338 336 336 339 342 338 337 334 329
248 250 249 249 251 245 247 249 249 249 250 252 255 249 249 251 255 261 260 260 255 218 222 220 204 208 241 208 176 180 228 271 293 310 335 339 333 335 335 337 334 331 332 333 333 333 332 330 332
246 246 248 251 248 245 246 249 248 248 252 248 253 244 238 243 242 258 258 255 238 209 213 204 197 189 197 192 210 237 249 275 285 316 332 333 330 336 336 336 335 335 333 331 332 334 332 331 334
243 242 243 246 247 248 249 247 246 245 247 247 249 247 234 223 208 198 221 222 218 200 195 198 184 191 189 189 215 247 268 280 287 294 313 321 338 339 339 338 339 336 333 330 331 334 335 332 337
241 242 242 244 244 242 243 244 244 243 239 243 242 247 243 232 218 206 242 225 202 200 213 248 250 227 214 214 225 229 212 264 280 290 300 329 346 342 339 337 337 337 338 337 339 340 337 336 333
242 242 241 241 243 245 244 246 245 241 236 237 238 243 245 248 231 229 242 232 199 182 193 224 215 277 243 213 235 223 248 250 270 283 309 341 340 341 339 339 343 343 342 342 343 342 340 335 331
244 237 239 242 239 242 238 245 240 235 230 233 241 245 246 240 242 238 234 224 195 198 208 212 250 240 206 190 170 198 208 251 244 305 326 338 342 339 340 341 344 347 349 350 347 345 340 336 334
237 232 228 233 231 235 235 244 243 235 231 234 247 241 236 227 239 239 219 206 198 184 175 177 171 157 187 216 249 266 278 285 281 325 342 341 341 345 345 349 353 355 352 352 351 345 342 340 336
233 231 227 226 229 228 231 237 233 240 244 243 247 239 227 224 227 232 209 198 195 178 169 168 175 200 241 264 270 288 312 334 343 349 346 349 355 354 355 357 356 353 352 351 350 343 338 335 333
235 231 233 234 241 227 230 234 241 241 247 246 248 229 213 209 217 212 200 198 195 178 176 157 149 164 227 282 321 349 332 351 351 358 356 355 357 357 356 355 353 351 348 350 350 347 340 334 329
229 230 225 232 226 227 227 226 231 231 244 265 237 208 202 198 207 215 203 194 190 181 171 159 160 180 146 51 355 351 346 355 3 356 354 355 355 354 353 353 350 349 348 347 347 342 340 335 326
234 225 230 231 234 227 224 227 228 244 236 251 236 204 190 189 184 172 168 175 171 171 161 138 135 113 90 69 25 11 357 350 348 351 352 352 353 352 352 351 346 343 341 342 340 340 338 337 332
237 228 227 226 223 228 235 228 241 239 213 192 178 164 162 157 153 160 156 159 161 156 159 131 121 95 53 32 26 360 348 349 351 354 354 353 354 354 351 348 346 342 342 342 340 339 335 332 329